Location: Ajisawe
(8.4333°N, 4.3833°E)
Time: 22:42:46
(UTC+00:00)

STARLINK-1146 - Visible Passes

Search period start: 01 October 2020 00:00
Search period end: 11 October 2020 00:00
Orbit: 548 x 551 km, 53.0° (Epoch: 01 October)

Date Brightness Start Highest point End Pass type
(mag) Time Alt. Az. Time Alt. Az. Time Alt. Az.
05 Oct 5.9 19:19:55 10° NNW 19:20:55 17° NNW 19:20:55 17° NNW visible
06 Oct 4.9 19:14:23 10° NW 19:16:57 37° NW 19:16:57 37° NW visible
07 Oct 4.6 19:09:03 10° NW 19:12:59 44° WSW 19:13:17 43° SW visible
08 Oct 5.6 19:03:56 10° WNW 19:07:28 27° WSW 19:09:59 16° S visible
09 Oct 6.3 18:59:10 10° W 19:01:58 18° WSW 19:04:47 10° SSW visible
10 Oct 6.8 18:55:14 10° WSW 18:56:28 11° WSW 18:57:43 10° SW visible
